This is the latest recevied weather packets stored in our database for station/object KI4MRC. If no packets are shown the sender has not sent any weather packets the latest 1 day(s).
| Time | Temp. | Humidity | Pressure | Rain* | Wind** | Luminosity | Snow |
|---|---|---|---|---|---|---|---|
| 1778017769 | 27.22° C | 73% | 1014.2 hPa | 0 mm | 1.34 m/s, 57° | 77 W/m² | - |
| 1778017466 | 27.22° C | 71% | 1014 hPa | 0 mm | 2.24 m/s, 40° | 94 W/m² | - |
| 1778017163 | 27.22° C | 71% | 1014 hPa | 0 mm | 0.89 m/s, 32° | 138 W/m² | - |
| 1778016861 | 27.22° C | 71% | 1013.8 hPa | 0 mm | 1.34 m/s, 54° | 98 W/m² | - |
| 1778016557 | 27.22° C | 72% | 1013.9 hPa | 0 mm | 2.24 m/s, 71° | 124 W/m² | - |
| 1778016254 | 27.22° C | 71% | 1013.6 hPa | 0 mm | 1.79 m/s, 141° | 75 W/m² | - |
| 1778015950 | 27.78° C | 72% | 1013.6 hPa | 0 mm | 0.89 m/s, 114° | 99 W/m² | - |
| 1778015648 | 27.78° C | 72% | 1013.5 hPa | 0 mm | 1.34 m/s, 46° | 91 W/m² | - |
| 1778015344 | 27.78° C | 73% | 1013.5 hPa | 0 mm | 1.34 m/s, 73° | 80 W/m² | - |
| 1778015041 | 27.78° C | 71% | 1013.6 hPa | 0 mm | 1.34 m/s, 126° | 101 W/m² | - |
| 1778014738 | 27.78° C | 70% | 1013.7 hPa | 0 mm | 1.79 m/s, 48° | 116 W/m² | - |
| 1778014437 | 27.78° C | 69% | 1013.9 hPa | 0 mm | 1.34 m/s, 130° | 136 W/m² | - |
| 1778014133 | 27.78° C | 69% | 1013.7 hPa | 0 mm | 0.89 m/s, 106° | 137 W/m² | - |
| 1778013831 | 28.33° C | 69% | 1013.7 hPa | 0 mm | 1.34 m/s, 29° | 119 W/m² | - |
| 1778013528 | 28.33° C | 68% | 1013.7 hPa | 0 mm | 1.34 m/s, 103° | 128 W/m² | - |
| 1778013224 | 28.33° C | 68% | 1013.9 hPa | 0 mm | 0.45 m/s, 121° | 148 W/m² | - |
| 1778012921 | 28.33° C | 69% | 1013.9 hPa | 0 mm | 1.79 m/s, 41° | 216 W/m² | - |
| 1778012617 | 28.33° C | 68% | 1013.9 hPa | 0 mm | 1.34 m/s, 106° | 136 W/m² | - |
| 1778012314 | 28.33° C | 68% | 1013.9 hPa | 0 mm | 1.34 m/s, 29° | 133 W/m² | - |
| 1778012011 | 28.33° C | 68% | 1013.9 hPa | 0 mm | 1.79 m/s, 36° | 133 W/m² | - |
| 1778011710 | 28.89° C | 67% | 1014 hPa | 0 mm | 1.34 m/s, 134° | 138 W/m² | - |
| 1778011406 | 28.89° C | 68% | 1014 hPa | 0 mm | 1.34 m/s, 73° | 214 W/m² | - |
| 1778011101 | 28.33° C | 67% | 1014.1 hPa | 0 mm | 0.89 m/s, 85° | 189 W/m² | - |
| 1778010799 | 28.89° C | 68% | 1014.1 hPa | 0 mm | 3.58 m/s, 161° | 153 W/m² | - |
| 1778010496 | 28.89° C | 67% | 1014.2 hPa | 0 mm | 1.34 m/s, 68° | 142 W/m² | - |
* Rain latest hour (hover to see other rain measurements)
** Current wind speed in m/s (hover to see current wind gust speed)